Flag for Brazil Weather past 2 weeks in Brasilia, Distrito Federal, Brazil

Now
77 °F

Passing clouds.


Feels Like: 79 °F
Forecast: 63 / 81 °F
Wind: 3 mph from Southwest

Location: Brasilia Aeroporto


UV Index: 7 (High)

Visibility: N/A


Pressure: 30.07 "Hg

Humidity: 69%

Dew point: 66 °F

Location of BrasiliaLocation

Historic Weather in Brasilia

°F

Brasilia temperature yesterday

Maximum temperature yesterday: 84 °F (at 2:00 PM)
Minimum temperature yesterday: 68 °F (at 12:00 AM)
Average temperature yesterday: 75 °F

Past Weeks' High & Low Weather Summary

 TemperatureHumidityPressure
High86 °F (Apr 7, 2:00 PM)100% (Apr 10, 6:00 PM)30.18 "Hg (Apr 10, 6:00 PM)
Low37 °F (Apr 10, 6:00 PM)40% (Apr 14, 2:00 PM)29.95 "Hg (Apr 9, 4:00 PM)
Average75 °F71%30.08 "Hg
* Reported Apr 3 8:00 PM — Apr 18 8:00 PM, Brasilia, Weather by CustomWeather, © 2014

Note: Actual official high and low records may vary slightly from our data, if they occured in-between our weather recording intervals... More about our weather records

Advertising

Historic Weather Conditions — Data for Previous 24 hours

 ConditionsComfort  
Time TempWeatherWind HumidityBarometerVisibility
8:00 PM
Apr 18
77 °FPassing clouds.2 mph69%30.04 "HgN/A
7:00 PM77 °FPartly cloudy.5 mph69%30.04 "HgN/A
6:00 PM81 °FBroken clouds.5 mph62%30.01 "HgN/A
5:00 PM81 °FScattered clouds.8 mph62%30.01 "HgN/A
4:00 PM84 °FScattered clouds.12 mph45%29.98 "HgN/A
3:00 PM84 °FScattered clouds.8 mph45%29.98 "HgN/A
2:00 PM84 °FScattered clouds.8 mph45%30.01 "HgN/A
1:00 PM82 °FPartly sunny.7 mph48%30.04 "HgN/A
12:00 PM82 °FScattered clouds.9 mph51%30.07 "HgN/A
11:00 AM81 °FPartly sunny.8 mph54%30.09 "HgN/A
10:00 AM79 °FPassing clouds.8 mph65%30.09 "HgN/A
9:00 AM77 °FPassing clouds.8 mph65%30.09 "HgN/A
8:00 AM73 °FPassing clouds.3 mph74%30.09 "HgN/A
7:00 AM70 °FSunny.No wind78%30.07 "Hg10 mi
6:00 AM70 °FClear.3 mph83%30.04 "Hg10 mi
5:00 AM70 °FPassing clouds.3 mph83%30.04 "HgN/A
4:00 AM72 °FPassing clouds.5 mph78%30.04 "HgN/A
3:00 AM72 °FPassing clouds.3 mph83%30.04 "HgN/A
2:00 AM72 °FPassing clouds.2 mph83%30.07 "HgN/A
1:00 AM73 °FPassing clouds.3 mph78%30.07 "HgN/A
12:00 AM73 °FPassing clouds.5 mph78%30.09 "HgN/A
11:00 PM
Apr 17
73 °FPassing clouds.No wind78%30.07 "HgN/A
10:00 PM73 °FPassing clouds.3 mph74%30.07 "HgN/A
9:00 PM75 °FPartly cloudy.6 mph74%30.07 "HgN/A
Weather by CustomWeather, © 2014

See weather overview